EW6055 Weather Reports


Display with metric or nautical units.
time (UTC)temp
F
wind
direction
speed
MPH
gust
MPH
rain 1hr
in
rain 24hr
in
rain mn
in
humidity
%
barometer
mb
20260905085524 55 0 0.0 0.0 0.00 0.20 0.00 94 1014.7
20260905085003 55 0 0.0 0.0 0.00 0.20 0.00 94 1014.7
20260905084503 55 0 0.0 0.0 0.00 0.20 0.00 94 1014.6
20260905084003 55 0 0.0 0.0 0.00 0.20 0.00 94 1014.6
20260905083503 55 0 0.0 0.0 0.00 0.20 0.00 94 1014.6
20260905083003 55 0 0.0 0.0 0.00 0.20 0.00 94 1014.6
20260905082524 55 0 0.0 0.0 0.00 0.20 0.00 94 1014.6
20260905082003 55 0 0.0 0.0 0.00 0.20 0.00 94 1014.5
20260905081503 55 0 0.0 0.0 0.00 0.20 0.00 94 1014.4
20260905081003 55 0 0.0 0.0 0.00 0.20 0.00 94 1014.4
20260905080503 55 0 0.0 0.0 0.00 0.20 0.00 94 1014.4
20260905080003 55 0 0.0 0.0 0.00 0.20 0.00 94 1014.4
20260905075503 56 0 0.0 0.0 0.00 0.20 0.00 94 1014.4
20260905075003 56 0 0.0 0.0 0.00 0.20 0.00 94 1014.4
20260905074503 56 0 0.0 0.0 0.00 0.20 0.00 94 1014.4
20260905074003 56 0 0.0 0.0 0.00 0.20 0.00 94 1014.3
20260905073503 56 0 0.0 0.0 0.00 0.20 0.00 94 1014.2
20260905073003 56 0 0.0 0.0 0.00 0.20 0.00 94 1014.2
20260905072503 56 0 0.0 0.0 0.00 0.20 0.00 94 1014.2
20260905072003 56 0 0.0 0.0 0.00 0.20 0.00 94 1014.1
20260905071503 56 0 0.0 0.0 0.00 0.20 0.00 94 1014.1
20260905071003 56 0 0.0 0.0 0.00 0.20 0.00 94 1014.1
20260905070503 56 137 0.0 1.0 0.00 0.20 0.00 94 1014.2
20260905070003 55 175 0.0 1.0 0.00 0.20 0.00 94 1014.2
20260905065524 55 189 0.0 2.0 0.00 0.20 0.20 94 1014.1
20260905065003 55 184 1.0 2.0 0.00 0.20 0.20 94 1014.1
20260905064503 55 179 0.0 1.0 0.00 0.20 0.20 94 1014.1
20260905064003 55 184 0.0 1.0 0.00 0.20 0.20 94 1014.0
20260905063524 55 139 0.0 1.0 0.00 0.20 0.20 94 1014.0
20260905063003 55 138 0.0 1.0 0.00 0.20 0.20 94 1013.9
20260905062503 55 0 0.0 0.0 0.00 0.20 0.20 94 1013.9
20260905062024 55 0 0.0 0.0 0.00 0.20 0.20 94 1013.8
20260905061503 55 0 0.0 0.0 0.00 0.20 0.20 94 1013.8
20260905061024 55 130 0.0 1.0 0.00 0.20 0.20 94 1013.8
20260905060503 55 141 0.0 1.0 0.00 0.20 0.20 93 1013.8
20260905060003 55 159 0.0 1.0 0.00 0.20 0.20 93 1013.8
20260905055524 55 158 0.0 1.0 0.00 0.20 0.20 93 1013.9
20260905055003 55 139 0.0 1.0 0.00 0.20 0.20 93 1013.9
20260905054524 55 109 0.0 1.0 0.00 0.20 0.20 93 1013.8
20260905054003 55 0 0.0 0.0 0.00 0.20 0.20 93 1013.8
20260905053524 55 0 0.0 0.0 0.00 0.20 0.20 93 1013.9
20260905053003 55 0 0.0 0.0 0.00 0.20 0.20 93 1013.9
20260905052524 55 0 0.0 0.0 0.00 0.20 0.20 93 1013.8
20260905052024 55 0 0.0 0.0 0.00 0.20 0.20 93 1013.8
20260905051524 55 98 0.0 1.0 0.00 0.20 0.20 93 1013.8
20260905051024 55 98 0.0 1.0 0.00 0.20 0.20 92 1013.8
20260905050503 55 0 0.0 0.0 0.00 0.20 0.20 92 1013.7
20260905050003 55 0 0.0 0.0 0.00 0.20 0.20 92 1013.7
20260905045524 55 0 0.0 0.0 0.00 0.20 0.20 92 1013.6
20260905045003 55 0 0.0 0.0 0.00 0.20 0.20 91 1013.7
20260905044503 55 0 0.0 0.0 0.00 0.20 0.20 91 1013.7
20260905044024 55 0 0.0 0.0 0.00 0.20 0.20 91 1013.8
20260905043503 55 0 0.0 0.0 0.00 0.20 0.20 91 1013.7
20260905043003 55 0 0.0 0.0 0.00 0.20 0.20 91 1013.7
20260905042503 55 0 0.0 0.0 0.00 0.20 0.20 91 1013.7
20260905042003 55 0 0.0 0.0 0.00 0.20 0.20 90 1013.6
20260905041503 56 0 0.0 0.0 0.00 0.20 0.20 90 1013.6
20260905041003 56 0 0.0 0.0 0.00 0.20 0.20 90 1013.4
20260905040503 56 0 0.0 0.0 0.00 0.20 0.20 89 1013.3
20260905040003 56 93 0.0 1.0 0.00 0.20 0.20 89 1013.3
20260905035503 56 94 0.0 1.0 0.00 0.20 0.20 89 1013.3
20260905035003 56 97 0.0 1.0 0.00 0.20 0.20 89 1013.3
20260905034503 56 0 0.0 0.0 0.00 0.20 0.20 88 1013.2
20260905034003 56 0 0.0 0.0 0.00 0.20 0.20 88 1013.2
20260905033503 57 0 0.0 0.0 0.00 0.20 0.20 87 1013.2
20260905033003 57 0 0.0 0.0 0.00 0.20 0.20 87 1013.1
20260905032503 57 0 0.0 0.0 0.00 0.20 0.20 86 1013.1
20260905032003 58 0 0.0 0.0 0.00 0.20 0.20 86 1013.1
20260905031503 58 0 0.0 0.0 0.00 0.20 0.20 86 1013.1
20260905031003 58 0 0.0 0.0 0.00 0.20 0.20 85 1013.1
20260905030503 58 0 0.0 0.0 0.00 0.20 0.20 85 1013.0
20260905030003 58 103 0.0 1.0 0.00 0.20 0.20 85 1013.0
20260905025524 59 132 0.0 1.0 0.00 0.20 0.20 85 1013.0
20260905025003 59 190 0.0 1.0 0.00 0.20 0.20 85 1013.0
20260905024524 59 188 0.0 1.0 0.00 0.20 0.20 85 1012.9
20260905024003 59 149 0.0 1.0 0.00 0.20 0.20 84 1012.9
20260905023503 59 118 0.0 1.0 0.00 0.20 0.20 85 1013.0
20260905023003 60 92 0.0 1.0 0.00 0.20 0.20 85 1012.9
20260905022503 60 92 0.0 1.0 0.00 0.20 0.20 85 1012.9
20260905022003 60 111 0.0 1.0 0.00 0.20 0.20 84 1012.9
20260905021503 60 108 1.0 1.0 0.00 0.20 0.20 84 1012.8
20260905021003 60 102 1.0 1.0 0.00 0.20 0.20 84 1012.8
20260905020524 60 96 0.0 1.0 0.00 0.20 0.20 84 1012.7
20260905020003 60 98 0.0 3.0 0.00 0.20 0.20 84 1012.7
20260905015503 60 102 0.0 3.0 0.00 0.20 0.20 84 1012.7
20260905015024 60 97 0.0 2.0 0.00 0.20 0.20 83 1012.7
20260905014503 60 101 0.0 1.0 0.00 0.20 0.20 84 1012.7
20260905014003 60 111 0.0 1.0 0.01 0.20 0.20 84 1012.7
20260905013503 60 110 1.0 3.0 0.01 0.20 0.20 84 1012.6
20260905013003 60 109 0.0 3.0 0.01 0.20 0.20 84 1012.5
20260905012503 60 0 0.0 0.0 0.02 0.20 0.20 85 1012.5
20260905012024 60 0 0.0 0.0 0.02 0.20 0.20 83 1012.4
20260905011524 60 0 0.0 0.0 0.02 0.20 0.20 86 1012.4
20260905011003 60 0 0.0 0.0 0.02 0.20 0.20 88 1012.4
20260905010503 60 0 0.0 0.0 0.02 0.20 0.20 88 1012.3
20260905010003 60 0 0.0 0.0 0.02 0.20 0.20 88 1012.3
20260905005503 60 0 0.0 0.0 0.02 0.20 0.20 87 1012.2
20260905005003 60 0 0.0 0.0 0.02 0.20 0.20 87 1012.3
20260905004503 60 0 0.0 0.0 0.02 0.20 0.20 87 1012.3
20260905004003 60 0 0.0 0.0 0.01 0.19 0.19 86 1012.3
20260905003503 60 0 0.0 0.0 0.01 0.19 0.19 86 1012.2
20260905003003 60 0 0.0 0.0 0.01 0.19 0.19 85 1012.2
20260905002503 60 0 0.0 0.0 0.00 0.18 0.18 85 1012.2
20260905002003 60 147 0.0 1.0 0.00 0.18 0.18 85 1012.2
20260905001503 60 126 0.0 3.0 0.00 0.19 0.18 85 1012.4
20260905001003 60 120 0.0 3.0 0.00 0.19 0.18 85 1012.5
20260905000503 60 116 0.0 3.0 0.00 0.19 0.18 85 1012.4
20260905000003 60 116 0.0 3.0 0.00 0.19 0.18 86 1012.4
20260904235503 60 88 0.0 1.0 0.00 0.19 0.18 86 1012.3
20260904235003 60 88 0.0 1.0 0.00 0.19 0.18 86 1012.2
20260904234503 60 102 0.0 4.0 0.00 0.19 0.18 87 1012.2
20260904234003 60 99 0.0 4.0 0.00 0.19 0.18 87 1012.1
20260904233503 60 74 1.0 4.0 0.00 0.19 0.18 87 1012.2
20260904233003 60 66 1.0 4.0 0.00 0.19 0.18 86 1012.1
20260904232503 60 78 0.0 3.0 0.00 0.19 0.18 87 1012.2
20260904232003 60 67 1.0 3.0 0.00 0.19 0.18 86 1012.1
20260904231503 60 65 1.0 4.0 0.00 0.19 0.18 87 1012.1
20260904231003 60 67 0.0 4.0 0.00 0.19 0.18 86 1012.0
20260904230503 60 54 1.0 8.0 0.00 0.19 0.18 87 1012.0
20260904230003 60 58 1.0 8.0 0.00 0.19 0.18 87 1012.0
20260904225524 60 66 0.0 5.0 0.00 0.20 0.18 87 1012.0
20260904225003 60 56 1.0 6.0 0.00 0.21 0.18 87 1012.0
20260904224503 60 56 1.0 6.0 0.00 0.21 0.18 89 1011.9
20260904224003 60 58 1.0 6.0 0.00 0.22 0.18 90 1012.0
20260904223524 59 66 0.0 3.0 0.00 0.22 0.18 89 1012.1
20260904223003 59 53 0.0 1.0 0.00 0.22 0.18 88 1012.2
20260904222503 59 51 0.0 2.0 0.00 0.22 0.18 88 1012.1
20260904222003 60 51 0.0 2.0 0.01 0.22 0.18 89 1012.2
20260904221503 60 0 0.0 0.0 0.01 0.22 0.18 88 1012.1
20260904221003 59 0 0.0 0.0 0.02 0.22 0.18 88 1012.1
20260904220503 60 42 0.0 1.0 0.03 0.22 0.18 86 1012.1
20260904220003 60 25 0.0 1.0 0.04 0.22 0.18 85 1012.0
20260904215524 60 10 0.0 2.0 0.06 0.22 0.18 86 1012.0
20260904215003 60 14 0.0 2.0 0.06 0.22 0.18 86 1011.9
20260904214503 60 69 0.0 2.0 0.06 0.22 0.18 86 1011.8
20260904214003 60 74 0.0 2.0 0.06 0.22 0.18 86 1011.6
20260904213503 60 84 0.0 2.0 0.06 0.22 0.18 86 1011.6
20260904213004 60 95 0.0 2.0 0.06 0.22 0.18 84 1011.5
20260904212503 61 100 0.0 1.0 0.06 0.22 0.18 83 1011.4
20260904212003 61 0 0.0 0.0 0.05 0.21 0.17 84 1011.4
20260904211503 61 107 0.0 1.0 0.05 0.21 0.17 82 1011.5
20260904211003 61 106 1.0 3.0 0.04 0.20 0.16 82 1011.5
20260904210503 62 127 1.0 3.0 0.03 0.19 0.15 80 1011.6
20260904210004 62 183 2.0 11.0 0.02 0.18 0.14 78 1011.6
20260904205524 63 186 3.0 11.0 0.00 0.16 0.12 73 1011.5
20260904205003 64 198 3.0 10.0 0.00 0.16 0.12 69 1011.3
20260904204503 64 213 3.0 9.0 0.00 0.16 0.12 67 1011.2
20260904204024 65 207 3.0 9.0 0.00 0.16 0.12 65 1011.1
20260904203503 66 204 3.0 8.0 0.00 0.16 0.12 63 1011.1
20260904203003 66 231 3.0 7.0 0.00 0.16 0.12 63 1011.1
20260904202503 67 238 2.0 5.0 0.00 0.16 0.12 61 1011.1
20260904202003 68 226 1.0 4.0 0.00 0.16 0.12 60 1011.0
20260904201503 68 245 2.0 6.0 0.00 0.16 0.12 60 1010.9
20260904201003 68 271 2.0 6.0 0.00 0.16 0.12 61 1010.9
20260904200524 68 269 1.0 5.0 0.00 0.16 0.12 61 1010.9
20260904200003 68 246 1.0 4.0 0.00 0.16 0.12 62 1010.9
20260904195524 67 257 1.0 3.0 0.00 0.16 0.12 62 1010.9
20260904195003 67 241 1.0 5.0 0.00 0.16 0.12 63 1010.9
20260904194524 67 259 1.0 5.0 0.00 0.16 0.12 64 1011.0
20260904194003 66 274 2.0 5.0 0.00 0.16 0.12 65 1011.1
20260904193503 66 285 1.0 5.0 0.00 0.16 0.12 65 1011.1
20260904193003 66 325 1.0 4.0 0.00 0.16 0.12 65 1011.1
20260904192503 66 324 1.0 4.0 0.00 0.16 0.12 66 1011.1
20260904192003 66 291 1.0 4.0 0.00 0.16 0.12 70 1011.2
20260904191503 66 278 1.0 3.0 0.00 0.16 0.12 69 1011.2
20260904191024 67 0 0.0 0.0 0.00 0.16 0.12 65 1011.2
20260904190503 67 0 0.0 0.0 0.00 0.16 0.12 65 1011.2
20260904190003 67 0 0.0 0.0 0.00 0.16 0.12 66 1011.2
20260904185503 67 0 0.0 0.0 0.00 0.16 0.12 66 1011.2
20260904185003 66 0 0.0 0.0 0.00 0.16 0.12 70 1011.2
20260904184503 66 0 0.0 0.0 0.00 0.17 0.12 67 1011.3
20260904184003 65 0 0.0 0.0 0.00 0.17 0.12 69 1011.2
20260904183503 65 0 0.0 0.0 0.00 0.18 0.12 71 1011.2
20260904183005 64 0 0.0 0.0 0.00 0.19 0.12 73 1011.1
20260904182503 64 0 0.0 0.0 0.00 0.19 0.12 72 1011.0
20260904182003 63 0 0.0 0.0 0.00 0.20 0.12 78 1011.0
20260904181503 63 299 0.0 2.0 0.00 0.20 0.12 79 1011.0
20260904181003 62 321 1.0 3.0 0.00 0.20 0.12 81 1010.9
20260904180503 62 333 1.0 5.0 0.00 0.20 0.12 84 1011.0
20260904180003 62 334 2.0 5.0 0.00 0.20 0.12 82 1011.0
20260904175503 62 326 2.0 6.0 0.00 0.20 0.12 82 1011.0
20260904175003 62 325 1.0 6.0 0.00 0.20 0.12 83 1011.0
20260904174503 62 330 1.0 5.0 0.00 0.20 0.12 85 1010.9
20260904174003 61 330 1.0 5.0 0.00 0.20 0.12 84 1010.9
20260904173503 61 332 1.0 5.0 0.00 0.20 0.12 85 1010.9
20260904173003 60 342 0.0 4.0 0.00 0.20 0.12 88 1010.9
20260904172503 60 28 0.0 2.0 0.00 0.20 0.12 89 1010.8
20260904172024 60 29 0.0 2.0 0.00 0.20 0.12 89 1010.8
20260904171503 59 356 0.0 2.0 0.00 0.20 0.12 90 1010.8
20260904171003 59 348 1.0 3.0 0.00 0.20 0.12 91 1010.8
20260904170503 58 347 0.0 3.0 0.00 0.20 0.12 93 1010.7
20260904170003 58 339 0.0 3.0 0.00 0.20 0.12 94 1010.7
20260904165503 58 0 0.0 0.0 0.00 0.20 0.12 95 1010.6
20260904165003 58 0 0.0 0.0 0.00 0.20 0.12 95 1010.7
20260904164503 57 0 0.0 0.0 0.00 0.20 0.12 96 1010.7
20260904164003 57 0 0.0 0.0 0.00 0.20 0.12 96 1010.6
20260904163503 57 0 0.0 0.0 0.00 0.20 0.12 95 1010.6
20260904163003 56 0 0.0 0.0 0.00 0.20 0.12 96 1010.6
20260904162524 56 0 0.0 0.0 0.00 0.20 0.12 96 1010.6
20260904162024 56 0 0.0 0.0 0.01 0.20 0.12 96 1010.6
20260904161503 55 0 0.0 0.0 0.02 0.20 0.12 96 1010.6
20260904161003 55 0 0.0 0.0 0.03 0.20 0.12 95 1010.6
20260904160524 55 0 0.0 0.0 0.04 0.20 0.12 95 1010.6
20260904160003 55 0 0.0 0.0 0.04 0.20 0.12 95 1010.5
20260904155503 54 58 0.0 1.0 0.05 0.20 0.12 95 1010.5
20260904155003 54 58 0.0 1.0 0.06 0.20 0.12 95 1010.5
20260904154503 54 0 0.0 0.0 0.06 0.20 0.12 95 1010.5
20260904154003 54 355 0.0 1.0 0.06 0.20 0.12 95 1010.5
20260904153503 54 355 0.0 1.0 0.06 0.20 0.12 95 1010.5
20260904153003 53 0 0.0 0.0 0.06 0.20 0.12 95 1010.4
20260904152503 53 0 0.0 0.0 0.06 0.20 0.12 95 1010.4
20260904152003 53 0 0.0 0.0 0.05 0.20 0.11 95 1010.4
20260904151503 53 0 0.0 0.0 0.04 0.19 0.10 95 1010.4
20260904151003 53 0 0.0 0.0 0.03 0.18 0.09 95 1010.4
20260904150503 53 0 0.0 0.0 0.02 0.18 0.08 95 1010.3
20260904150025 53 0 0.0 0.0 0.02 0.19 0.08 95 1010.2
20260904145503 53 0 0.0 0.0 0.01 0.18 0.07 94 1010.2
20260904145003 53 0 0.0 0.0 0.00 0.18 0.06 95 1010.2
20260904144524 53 0 0.0 0.0 0.00 0.18 0.06 95 1010.1
20260904144024 53 0 0.0 0.0 0.00 0.19 0.06 95 1010.1
20260904143503 53 0 0.0 0.0 0.00 0.19 0.06 95 1010.0
20260904143003 53 0 0.0 0.0 0.00 0.20 0.06 95 1009.9
20260904142524 53 0 0.0 0.0 0.00 0.21 0.06 95 1009.9
20260904142004 53 0 0.0 0.0 0.00 0.22 0.06 95 1009.9
20260904141503 53 0 0.0 0.0 0.00 0.22 0.06 95 1009.8
20260904141003 53 0 0.0 0.0 0.00 0.22 0.06 94 1009.6
20260904140503 53 0 0.0 0.0 0.00 0.22 0.06 94 1009.6
20260904140003 53 0 0.0 0.0 0.00 0.23 0.06 94 1009.6
20260904135503 53 0 0.0 0.0 0.00 0.23 0.06 94 1009.5
20260904135003 53 0 0.0 0.0 0.00 0.23 0.06 94 1009.5
20260904134503 52 0 0.0 0.0 0.00 0.23 0.06 94 1009.5
20260904134003 52 0 0.0 0.0 0.00 0.23 0.06 94 1009.4
20260904133524 52 0 0.0 0.0 0.00 0.23 0.06 94 1009.4
20260904133003 52 0 0.0 0.0 0.00 0.23 0.06 94 1009.3
20260904132503 52 0 0.0 0.0 0.00 0.23 0.06 94 1009.3
20260904132003 52 0 0.0 0.0 0.00 0.23 0.06 94 1009.2
20260904131503 52 0 0.0 0.0 0.00 0.23 0.06 94 1009.2
20260904131003 52 0 0.0 0.0 0.00 0.23 0.06 94 1009.2
20260904130503 52 0 0.0 0.0 0.00 0.23 0.06 94 1009.1
20260904130003 52 0 0.0 0.0 0.00 0.23 0.06 94 1009.1
20260904125503 52 0 0.0 0.0 0.00 0.23 0.06 94 1009.1
20260904125003 52 0 0.0 0.0 0.00 0.23 0.06 94 1009.2
20260904124503 53 0 0.0 0.0 0.00 0.23 0.06 94 1009.1
20260904124003 52 0 0.0 0.0 0.00 0.23 0.06 94 1009.2
20260904123503 53 0 0.0 0.0 0.00 0.23 0.06 94 1009.1
20260904123003 53 0 0.0 0.0 0.00 0.23 0.06 94 1009.0
20260904122503 53 0 0.0 0.0 0.01 0.23 0.06 94 1009.0
20260904122003 53 0 0.0 0.0 0.01 0.23 0.06 94 1009.0
20260904121503 53 0 0.0 0.0 0.02 0.23 0.06 94 1008.9
20260904121024 53 0 0.0 0.0 0.02 0.23 0.06 94 1008.9
20260904120503 53 0 0.0 0.0 0.03 0.23 0.06 93 1008.9
20260904120003 53 0 0.0 0.0 0.03 0.23 0.06 93 1008.7
20260904115503 53 0 0.0 0.0 0.03 0.23 0.06 93 1008.7
20260904115003 53 0 0.0 0.0 0.04 0.23 0.06 93 1008.7
20260904114503 53 0 0.0 0.0 0.04 0.23 0.06 93 1008.7
20260904114024 53 0 0.0 0.0 0.04 0.23 0.06 93 1008.6
20260904113503 53 0 0.0 0.0 0.04 0.23 0.06 93 1008.6
20260904113024 53 0 0.0 0.0 0.05 0.23 0.06 93 1008.6
20260904112503 53 0 0.0 0.0 0.04 0.22 0.05 93 1008.6
20260904112003 53 0 0.0 0.0 0.05 0.22 0.05 93 1008.6
20260904111524 53 0 0.0 0.0 0.04 0.21 0.04 93 1008.5
20260904111003 53 0 0.0 0.0 0.04 0.21 0.04 93 1008.6
20260904110503 53 0 0.0 0.0 0.03 0.20 0.03 93 1008.5
20260904110003 53 0 0.0 0.0 0.03 0.20 0.03 93 1008.5
20260904105503 54 0 0.0 0.0 0.03 0.20 0.03 93 1008.5
20260904105003 54 0 0.0 0.0 0.02 0.19 0.02 93 1008.5
20260904104503 54 0 0.0 0.0 0.02 0.19 0.02 92 1008.5
20260904104003 54 0 0.0 0.0 0.02 0.19 0.02 92 1008.5
20260904103524 54 0 0.0 0.0 0.02 0.19 0.02 92 1008.5
20260904103003 54 0 0.0 0.0 0.01 0.18 0.01 92 1008.5
20260904102503 54 0 0.0 0.0 0.01 0.18 0.01 92 1008.5
20260904102024 54 0 0.0 0.0 0.00 0.17 0.00 92 1008.5
20260904101503 54 0 0.0 0.0 0.00 0.17 0.00 92 1008.5
20260904101003 54 0 0.0 0.0 0.00 0.17 0.00 92 1008.4
20260904100503 54 0 0.0 0.0 0.00 0.17 0.00 92 1008.4
20260904100024 54 0 0.0 0.0 0.00 0.17 0.00 92 1008.3
20260904095503 54 0 0.0 0.0 0.00 0.17 0.00 92 1008.3
20260904095024 54 0 0.0 0.0 0.00 0.17 0.00 92 1008.3
20260904094503 54 0 0.0 0.0 0.00 0.17 0.00 92 1008.2
20260904094003 54 0 0.0 0.0 0.00 0.17 0.00 92 1008.2
20260904093503 54 0 0.0 0.0 0.00 0.17 0.00 92 1008.1
20260904093003 54 0 0.0 0.0 0.00 0.17 0.00 91 1008.1
20260904092524 54 0 0.0 0.0 0.00 0.17 0.00 91 1008.1
20260904092024 54 0 0.0 0.0 0.00 0.17 0.00 91 1008.1
20260904091503 54 0 0.0 0.0 0.00 0.17 0.00 91 1008.1
20260904091003 54 0 0.0 0.0 0.00 0.17 0.00 90 1008.1
20260904090524 54 0 0.0 0.0 0.00 0.17 0.00 90 1008.1
20260904090003 54 0 0.0 0.0 0.00 0.17 0.00 91 1008.1